Resia Pass, Italy

7:53 AM CEST on June 28, 2017 (GMT +0200)
Resia Pass

Weather History for LIVE - November, 2013

Change the Weather History Date:

Wednesday, November 6, 2013

  Actual Average Record
Temperature  
Mean Temperature 36 °F -  
Max Temperature 39 °F 43 °F 64 °F (2015)
Min Temperature 33 °F 30 °F 24 °F (2000)
Degree Days  
Heating Degree Days 29    
Moisture  
Dew Point 36 °F    
Average Humidity 100    
Maximum Humidity 100    
Minimum Humidity 100    
Precipitation  
Precipitation 0.00 in - - ()
Sea Level Pressure  
Sea Level Pressure 29.75 in    
Wind  
Wind Speed 3 mph ()    
Max Wind Speed 8 mph    
Max Gust Speed -    
Visibility 4.5 miles    
Events Rain , Snow    
Averages and records for this station are not official NWS values.
T = Trace of Precipitation, MM = Missing Value Source: Averaged Metar Reports

Daily Weather History Graph

Daily Weather History Graph

Search for Another Location

Airport or City:

Trip Planner

Search our weather history database for the weather conditions in past years. The results will help you decide how hot, cold, wet, or windy it might be!

Date:

Astronomy

Nov. 06, 2013 Rise Set
Actual Time 7:07 AM CET 4:54 PM CET
Civil Twilight 6:35 AM CET 5:27 PM CET
Nautical Twilight 5:59 AM CET 6:03 PM CET
Astronomical Twilight 5:23 AM CET 6:38 PM CET
Moon 10:12 AM CET (11/6) 7:36 PM CET (11/6)
Length of Visible Light 10h 51m
Length of Day
9h 47m
Waxing Crescent, 11% of the Moon is Illuminated
Nov 6
Waxing Crescent
Nov 10
First Quarter
Nov 17
Full
Nov 25
Last Quarter
Dec 3
New

Hourly Weather History & Observations

Time (CET) Temp. Windchill Dew Point Humidity Pressure Visibility Wind Dir Wind Speed Gust Speed Precip Events Conditions
12:55 AM 35.6 °F 32.8 °F 35.6 °F 100% 29.50 in 6.2 mi NNE 3.5 mph - N/A   Partly Cloudy
6:55 AM 35.6 °F - 35.6 °F 100% 29.62 in 5.0 mi Calm Calm - N/A Rain Light Rain
7:55 AM 35.6 °F - 35.6 °F 100% 29.65 in 3.7 mi Calm Calm - N/A Rain Light Rain
8:55 AM 35.6 °F - 35.6 °F 100% 29.65 in 3.7 mi Calm Calm - N/A Snow Light Snow
9:55 AM 35.6 °F - 35.6 °F 100% 29.68 in 3.7 mi NNW 2.3 mph - N/A Snow Light Snow
10:55 AM 33.8 °F - 33.8 °F 100% 29.68 in 3.7 mi NNE 2.3 mph - N/A Snow Light Snow
11:55 AM 33.8 °F - 33.8 °F 100% 29.71 in 3.1 mi NNE 2.3 mph - N/A Snow Light Snow
12:55 PM 33.8 °F 30.8 °F 33.8 °F 100% 29.74 in 3.7 mi NNE 3.5 mph - N/A Rain Light Rain
1:55 PM 35.6 °F 32.8 °F 35.6 °F 100% 29.74 in 5.0 mi North 3.5 mph - N/A Rain Light Rain
2:55 PM 35.6 °F 31.7 °F 35.6 °F 100% 29.74 in 5.0 mi NNE 4.6 mph - N/A Snow Light Snow
3:55 PM 35.6 °F 31.7 °F 35.6 °F 100% 29.74 in 6.2 mi NNE 4.6 mph - N/A Rain Light Rain
4:55 PM 35.6 °F 32.8 °F 35.6 °F 100% 29.77 in - NNE 3.5 mph - N/A   Clear
5:55 PM 37.4 °F 32.1 °F 37.4 °F 100% 29.80 in - North 6.9 mph - N/A   Clear
6:55 PM 37.4 °F 32.8 °F 37.4 °F 100% 29.80 in - North 5.8 mph - N/A   Clear
7:55 PM 37.4 °F 34.9 °F 37.4 °F 100% 29.83 in - North 3.5 mph - N/A   Clear
8:55 PM 37.4 °F 31.4 °F 37.4 °F 100% 29.86 in - NNE 8.1 mph - N/A   Clear
9:55 PM 39.2 °F 35.0 °F 39.2 °F 100% 29.86 in - NNE 5.8 mph - N/A   Clear
10:55 PM 37.4 °F 32.8 °F 37.4 °F 100% 29.89 in - North 5.8 mph - N/A   Clear
11:55 PM 37.4 °F 33.8 °F 37.4 °F 100% 29.92 in - NNE 4.6 mph - N/A   Clear